User: anonymous   Login
Location: Caltech
(34.1382°N, 118.1253°W)
Time: 03:20:02
(UTC-07:00)
Language:

AO-Echo - Orbit

View from above orbital plane
View from above orbital plane
View from above satellite
View from above satellite

Ground track
Ground track

The orbit data is extracted from the following two-line orbital elements,

1 28375U 04025K   15117.43669039  .00000276  00000-0  94085-4 0  9996
2 28375 098.2890 059.3499 0083827 122.3957 238.5378 14.41638026569189
Epoch (UTC): 27 April 2015 10:28:50
Eccentricity: 0.0083827
inclination: 98.2890°
perigee height: 693 km
apogee height: 813 km
right ascension of ascending node: 59.3499°
argument of perigee: 122.3957°
revolutions per day: 14.41638026
mean anomaly at epoch: 238.5378°
orbit number at epoch: 56918

The dashed part of the orbit path shows where the satellite is in the earth's shadow,  

DLR